Weather History for Sheridan, WY

Change the Weather History Date:

Monday, January 23, 2012

  Actual Average Record
Temperature  
Mean Temperature 27 °F 24 °F  
Max Temperature 41 °F 37 °F 65 °F (2005)
Min Temperature 13 °F 12 °F -27 °F (1929)
Degree Days  
Heating Degree Days 38 41  
Month to date heating degree days 890 952  
Since 1 July heating degree days 3727 4135  
Cooling Degree Days 0 0  
Month to date cooling degree days 0 0  
Year to date cooling degree days 0 0  
Moisture  
Dew Point 17 °F    
Average Humidity 64    
Maximum Humidity 88    
Minimum Humidity 40    
Precipitation  
Precipitation T in 0.02 in 0.36 in (1938)
Month to date precipitation 0.29 0.40  
Year to date precipitation 0.29 0.40  
Sea Level Pressure  
Sea Level Pressure 29.90 in    
Wind  
Wind Speed 3 mph (NNW)    
Max Wind Speed 20 mph    
Max Gust Speed 24 mph    
Visibility 10 miles    
Events Snow    
T = Trace of Precipitation, MM = Missing Value Source: NWS Daily Summary

Daily Weather History Graph

Daily Weather History Graph

Search for Another Location

Airport:

Trip Planner

Search our weather history database for the weather conditions in past years. The results will help you decide how hot, cold, wet, or windy it might be!

Date:

Astronomy

Jan. 23, 2012 Rise Set
Actual Time 7:36 AM MST 5:03 PM MST
Civil Twilight 7:04 AM MST 5:35 PM MST
Nautical Twilight 6:28 AM MST 6:10 PM MST
Astronomical Twilight 5:54 AM MST 6:45 PM MST
Moon 7:30 AM MST (1/23) 5:58 PM MST (1/23)
Length of Visible Light 10h 30m
Length of Day
9h 26m
New Moon, 0% of the Moon is Illuminated
Jan 23
New Moon
Jan 30
First Quarter
Feb 7
Full
Feb 14
Last Quarter
Feb 21
New

Hourly Weather History & Observations

Time (MST) Temp. Windchill Dew Point Humidity Pressure Visibility Wind Dir Wind Speed Gust Speed Precip Events Conditions
12:53 AM 18.0 °F 11.1 °F 12.0 °F 78% 29.91 in 10.0 mi North 4.6 mph - N/A   Clear
1:53 AM 16.0 °F - 10.9 °F 81% 29.91 in 10.0 mi Calm Calm - N/A   Clear
2:53 AM 15.1 °F - 10.9 °F 84% 29.94 in 10.0 mi Calm Calm - N/A   Clear
3:53 AM 15.1 °F 6.4 °F 10.0 °F 80% 29.90 in 10.0 mi SSW 5.8 mph - N/A   Clear
4:53 AM 16.0 °F 7.4 °F 12.0 °F 84% 29.91 in 10.0 mi NNW 5.8 mph - N/A   Clear
5:53 AM 14.0 °F - 10.4 °F 86% 29.78 in 10.0 mi Calm Calm - N/A   Clear
6:53 AM 15.1 °F 9.4 °F 10.9 °F 84% 29.93 in 10.0 mi SSW 3.5 mph - N/A   Clear
7:53 AM 16.0 °F - 12.0 °F 84% 29.92 in 10.0 mi Calm Calm - N/A   Clear
8:53 AM 23.0 °F - 15.1 °F 72% 29.90 in 10.0 mi Calm Calm - N/A   Clear
9:53 AM 24.1 °F 16.0 °F 17.1 °F 75% 29.89 in 10.0 mi North 6.9 mph - N/A   Clear
10:53 AM 28.9 °F 22.8 °F 18.0 °F 64% 29.88 in 10.0 mi North 5.8 mph - N/A   Clear
11:53 AM 33.1 °F 28.7 °F 18.0 °F 54% 29.84 in 10.0 mi NNW 4.6 mph - N/A   Clear
12:53 PM 36.0 °F 31.1 °F 18.0 °F 48% 29.83 in 10.0 mi NNW 5.8 mph - N/A   Clear
1:53 PM 39.0 °F - 18.0 °F 43% 29.83 in 10.0 mi Calm Calm - N/A   Clear
2:53 PM 39.0 °F - 18.0 °F 43% 29.84 in 10.0 mi Calm Calm - N/A   Clear
3:53 PM 39.9 °F - 19.9 °F 45% 29.85 in 10.0 mi Calm Calm - N/A   Clear
4:53 PM 32.0 °F 28.7 °F 21.0 °F 64% 29.88 in 10.0 mi NNE 3.5 mph - N/A   Clear
5:53 PM 27.0 °F - 21.0 °F 78% 29.91 in 10.0 mi Calm Calm - N/A   Clear
6:53 PM 28.9 °F - 21.9 °F 75% 29.92 in 10.0 mi Calm Calm - N/A   Partly Cloudy
7:53 PM 28.0 °F - 21.9 °F 78% 29.93 in 10.0 mi Calm Calm - N/A   Partly Cloudy
8:53 PM 28.0 °F 21.7 °F 21.9 °F 78% 29.93 in 10.0 mi ENE 5.8 mph - N/A   Overcast
9:53 PM 30.9 °F - 21.0 °F 67% 29.95 in 10.0 mi Calm Calm - N/A   Overcast
10:53 PM 33.1 °F 26.9 °F 19.0 °F 56% 29.96 in 10.0 mi WNW 6.9 mph - N/A   Overcast
11:50 PM 33.8 °F 24.3 °F 24.8 °F 70% 29.91 in 6.0 mi NW 13.8 mph - 0.00 in Snow Light Snow
11:53 PM 33.1 °F 22.6 °F 25.0 °F 72% 29.99 in 5.0 mi NW 16.1 mph - 0.00 in Snow Light Snow